Regional Weather Roundup
Issued by NWS

Home | Current Version | Previous Version | Text Only | Print | Product List | Glossary On
Versions: 1 2 3 4 5 6 7 8 9 10 11 12 13 14 15 16 17 18 19 20 21 22 23 24 25 26 27 28 29 30 31 32 33 34 35 36 37 38 39 40 41 42 43 44 45 46 47 48 49 50
000
ASUS43 KTOP 030408
RWRKS

WEATHER ROUNDUP FOR KANSAS
NATIONAL WEATHER SERVICE GOODLAND KS
1100 PM CDT SUN AUG 02 2015

NOTE:  "FAIR" INDICATES FEW OR NO CLOUDS BELOW 12,000 FEET WITH NO
SIGNIFICANT WEATHER AND/OR OBSTRUCTIONS TO VISIBILITY.

KSZ001>006-013>018-027>032-041>047-030500-
NORTHWEST KANSAS

CITY           SKY/WX    TMP DP  RH WIND       PRES   REMARKS
GOODLAND       PTCLDY    73  55  53 SE10      30.02S
HAYS           CLOUDY    82  64  54 SW7       29.93R
HILL CITY      PTCLDY    78  62  57 S8        29.93F
RUSSELL        CLOUDY    82  69  64 S13       29.88F
$$

KSZ061>065-074>080-084>089-030500-
SOUTHWEST KANSAS

CITY           SKY/WX    TMP DP  RH WIND       PRES   REMARKS
DODGE CITY     PTCLDY    74  67  78 SE6       29.97R
ELKHART          N/A     75  67  76 E7          N/A
GARDEN CITY    MOCLDY    75  65  70 SE6       29.97R
GREAT BEND     CLEAR     79  68  69 S10       29.90F
LIBERAL        MOCLDY    77  63  61 S6        29.95S
PRATT          PTCLDY    77  68  73 CALM      29.95F
$$

KSZ066>073-081>083-090>101-030500-
SOUTHEAST KANSAS

CITY           SKY/WX    TMP DP  RH WIND       PRES   REMARKS
CHANUTE        PTCLDY    74  64  71 S7        29.92R
COFFEYVILLE    CLEAR     73  66  78 SE5       29.92R
HUTCHINSON     PTCLDY    79  70  74 S7        29.91F
MEDICINE LODGE   N/A     79  70  74 E6        29.92R
NEWTON         PTCLDY    75  64  69 SE7       29.95S
PARSONS        CLEAR     74  66  76 CALM      29.93S
WICHITA INTL   PTCLDY    77  68  73 S6        29.91S
WICHITA JABRA  CLEAR     78  67  68 S8        29.92S
WICHITA MCCONL CLEAR     78  67  69 S8        29.92S
WINFIELD       CLEAR     76  68  76 SE5       29.93S
$$

KSZ007>012-019>026-033>040-048>060-102>105-030500-
NORTHEAST KANSAS

CITY           SKY/WX    TMP DP  RH WIND       PRES   REMARKS
CONCORDIA      CLEAR     81  69  67 S14       29.87R
EMPORIA        MOCLDY    75  69  81 S7        29.91R
LAWRENCE       CLEAR     81  70  69 SW7       29.86R
MANHATTAN      PTCLDY    78  71  79 SW7       29.86S
MARYSVILLE     PTCLDY    81  72  74 S7        29.86S
OLATHE IND     CLEAR     81  67  62 S12       29.89R
OLATHE EXE     CLEAR     79  68  69 SW8       29.88R
SALINA         CLOUDY    83  71  67 S8        29.88R
TOPEKA BILLARD PTCLDY    83  71  67 SW6       29.87R
TOPEKA FORBES  PTCLDY    80  70  71 S8        29.88R
$$



USA.gov is the U.S. government's official web portal to all federal, state and local government web resources and services.